Вернуться в каталог

STARLINK-37321

АктивенСвязьVLEO
NORAD 69198·PAYLOAD·🇺🇸 United States

Запущен May 26, 2026 с Vandenberg Space Force Base

Loading…

Ближайшие Пролёты (ближайшие 24 часа)

TLE

СвежийSource: CelesTrak SupGP

Эпоха: Sep 14, 2026, 22:58 UTC

1 69198C 26114S   26257.95743056 -.00065701  00000+0 -19412-2 0  2574
2 69198  53.1573 139.5943 0001371  88.1878 345.3893 15.34422832    15

Отслеживайте STARLINK-37321 в реальном времени с AllMySat

Download on the App Store